Flag for United Kingdom Weather past 2 weeks in Horsham, England, United Kingdom

Now
43 °F

Passing clouds.


Feels Like: 38 °F
Forecast: 38 / 53 °F
Wind: 8 mph from Southwest

Location: London / Gatwick Airport

Current Time: Feb 28, 2015 at 1:38:15 AM

Latest Report: Feb 28, 2015 at 1:20 AM


Visibility: N/A

Pressure: 30.04 "Hg

Humidity: 87%

Dew point: 39 °F

Location of HorshamLocation

Historic Weather in Horsham — Graph

°F

Horsham temperature yesterday

Maximum temperature yesterday: 48 °F (at 1:50 PM)
Minimum temperature yesterday: 32 °F (at 6:50 AM)
Average temperature yesterday: 40 °F

Past Weeks' High & Low Weather Summary

 TemperatureHumidityPressure
High54 °F (Feb 25, 3:50 PM)100% (Feb 14, 1:50 AM)30.77 "Hg (Feb 14, 1:50 AM)
Low27 °F (Feb 22, 6:20 AM)50% (Feb 27, 2:20 PM)29.27 "Hg (Feb 22, 11:20 PM)
Average42 °F85%29.90 "Hg
* Reported Feb 13 12:20 AM — Feb 28 12:20 AM, Horsham, Weather by CustomWeather, © 2015

Note: Actual official high and low records may vary slightly from our data, if they occured in-between our weather recording intervals... More about our weather records

Advertising

Horsham weather history for previous 24 hours

 ConditionsComfort  
Time TempWeatherWind HumidityBarometerVisibility
12:20 AM
Sat, Feb 28
43 °FPassing clouds.7 mph81%30.07 "HgN/A
11:50 PM
Fri, Feb 27
43 °FPassing clouds.7 mph81%30.07 "HgN/A
11:20 PM41 °FClear.6 mph87%30.09 "Hg10 mi
10:50 PM41 °FClear.6 mph87%30.09 "Hg10 mi
10:20 PM39 °FClear.3 mph87%30.09 "Hg10 mi
9:50 PM39 °FClear.3 mph81%30.09 "Hg10 mi
9:20 PM39 °FClear.3 mph81%30.09 "Hg10 mi
8:50 PM39 °FClear.5 mph81%30.12 "Hg10 mi
8:20 PM41 °FClear.7 mph81%30.12 "Hg10 mi
7:50 PM41 °FClear.6 mph81%30.12 "Hg10 mi
7:20 PM41 °FClear.7 mph81%30.12 "Hg10 mi
6:50 PM43 °FClear.8 mph76%30.15 "Hg10 mi
6:20 PM43 °FPassing clouds.8 mph76%30.15 "HgN/A
5:50 PM43 °FPassing clouds.8 mph76%30.15 "HgN/A
5:20 PM45 °FScattered clouds.7 mph71%30.12 "HgN/A
4:50 PM45 °FPassing clouds.6 mph57%30.12 "HgN/A
4:20 PM46 °FScattered clouds.9 mph53%30.12 "HgN/A
3:50 PM48 °FScattered clouds.12 mph50%30.12 "HgN/A
3:20 PM46 °FScattered clouds.8 mph53%30.12 "HgN/A
2:50 PM48 °FScattered clouds.12 mph50%30.12 "HgN/A
2:20 PM48 °FScattered clouds.10 mph50%30.12 "HgN/A
1:50 PM48 °FPassing clouds.7 mph54%30.12 "HgN/A
1:20 PM46 °FPassing clouds.10 mph53%30.12 "HgN/A
12:50 PM45 °FScattered clouds.5 mph57%30.12 "HgN/A
12:20 PM45 °FPassing clouds.7 mph61%30.15 "HgN/A
11:50 AM45 °FPassing clouds.8 mph61%30.15 "HgN/A
11:20 AM45 °FPassing clouds.8 mph61%30.15 "HgN/A
10:50 AM43 °FPassing clouds.7 mph66%30.15 "HgN/A
10:20 AM43 °FSunny.12 mph71%30.15 "Hg10 mi
9:50 AM41 °FSunny.12 mph76%30.15 "Hg10 mi
9:20 AM39 °FSunny.10 mph75%30.12 "Hg10 mi
8:50 AM37 °FSunny.6 mph81%30.12 "Hg10 mi
8:20 AM37 °FSunny.7 mph75%30.12 "Hg10 mi
7:50 AM36 °FSunny.8 mph81%30.12 "Hg10 mi
7:20 AM34 °FSunny.7 mph87%30.09 "Hg10 mi
6:50 AM32 °FSunny.3 mph93%30.09 "Hg10 mi
6:20 AM34 °FClear.2 mph87%30.09 "Hg10 mi
5:50 AM34 °FPassing clouds.5 mph87%30.09 "HgN/A
5:20 AM34 °FClear.2 mph81%30.07 "Hg10 mi
4:50 AM34 °FClear.5 mph87%30.07 "Hg10 mi
4:20 AM36 °FClear.7 mph81%30.07 "Hg10 mi
3:20 AM36 °FClear.8 mph81%30.04 "Hg10 mi
2:50 AM36 °FClear.8 mph81%30.04 "Hg10 mi
2:20 AM36 °FClear.7 mph81%30.04 "Hg10 mi
1:50 AM36 °FClear.7 mph81%30.04 "Hg10 mi
1:20 AM36 °FClear.7 mph81%30.04 "Hg10 mi
Weather by CustomWeather, © 2015

See weather overviewHow to use our weather pages